Wind_Speed
36 38 38 37 34 31 30 30 30 29 28 28 29 29 28 27 28 27 25 24 23 22 21 20 18 17 16 15 15 14 14 14 15 16 16 18 18 18 17 15 14 14 14 14 14 14 14 13 13 13 13 13 12 12 12 11 11 12 12 12 11 11 12 12 13 13 13 13 14 15 15 15 15 14 14 14 13 12 12 12 13 13 13 13 14 13
36 37 38 38 39 38 36 34 29 24 23 25 28 29 28 28 29 29 27 26 24 23 24 22 20 19 17 16 15 15 15 15 15 14 15 17 17 17 17 17 15 13 14 15 14 14 14 14 13 13 14 14 14 13 13 12 12 12 12 12 12 11 11 12 12 12 12 13 14 15 15 15 15 15 15 14 13 12 12 11 12 12 13 13 14 14
37 37 38 40 41 39 37 35 30 26 25 25 28 30 30 32 30 28 28 27 25 24 25 24 22 20 19 18 17 17 17 16 15 14 14 14 12 12 15 16 16 15 14 15 16 15 16 16 15 14 14 15 15 13 13 12 12 12 13 13 12 11 11 11 12 13 13 13 14 15 15 16 16 16 15 15 14 13 12 11 12 12 13 13 14 14
36 37 39 39 40 39 39 38 35 32 29 27 29 29 30 33 30 29 31 30 26 24 25 25 22 20 20 20 19 19 17 16 15 14 13 12 9 10 12 13 15 17 16 16 17 17 17 17 16 16 16 16 15 14 13 13 13 12 13 13 13 11 11 11 12 13 14 15 15 16 17 17 17 16 16 15 14 13 13 12 12 12 13 13 13 14
37 39 38 37 39 40 41 40 39 36 33 31 29 30 33 35 35 35 33 30 27 26 25 23 22 22 21 21 20 19 18 17 15 14 15 15 12 11 10 11 15 16 15 16 17 18 19 19 19 18 17 16 16 16 15 14 14 13 13 12 12 12 11 11 12 14 15 16 17 18 19 19 18 17 16 15 14 13 13 12 12 12 13 13 13 13
38 38 36 37 39 40 40 40 40 39 38 35 32 32 33 34 37 36 32 30 28 27 26 24 23 23 23 24 23 22 20 19 17 17 18 18 15 14 13 13 15 15 14 15 15 16 18 21 21 20 19 18 17 17 17 15 14 13 12 12 12 12 12 12 13 15 16 17 18 19 19 19 17 16 15 15 15 14 13 12 12 12 12 12 12 12
38 37 37 39 39 39 40 40 41 41 40 38 36 35 33 32 35 35 33 32 30 30 30 27 25 24 25 28 26 25 24 21 20 19 19 17 16 16 16 16 17 16 15 15 14 14 15 19 21 21 21 20 19 19 18 17 15 14 13 12 12 12 13 14 15 16 18 18 19 19 18 17 16 15 14 15 15 15 14 13 12 12 12 12 12 12
37 37 39 40 39 40 40 40 41 41 41 42 40 36 34 33 35 36 35 35 36 36 32 30 31 26 26 30 28 27 26 22 21 20 18 17 17 17 18 19 19 19 18 18 16 15 14 16 19 21 22 22 20 20 19 18 17 15 14 13 13 13 14 15 16 17 18 19 19 19 18 16 16 15 15 15 15 15 14 14 13 12 12 12 12 11
36 37 39 39 39 39 39 39 40 40 41 43 40 37 36 35 35 36 37 38 40 37 32 33 34 29 28 30 29 28 27 23 21 21 20 19 18 18 18 19 20 21 20 20 19 18 16 15 17 20 22 23 22 21 20 20 19 17 15 14 14 14 15 16 17 17 18 19 19 18 17 17 16 16 16 16 15 15 15 14 14 13 13 12 12 11
38 38 39 40 40 40 40 40 39 38 41 41 39 39 39 37 36 36 37 40 40 36 35 36 34 31 30 31 32 30 27 25 23 21 21 20 20 20 19 19 20 21 21 21 21 20 19 18 18 21 23 23 23 22 21 20 19 18 17 15 15 15 16 17 17 17 17 18 18 18 17 17 17 17 17 17 16 16 15 15 14 14 13 13 12 12
38 39 39 40 41 40 39 38 37 38 40 39 38 41 41 39 37 36 37 40 39 37 37 36 36 35 31 31 34 32 29 27 25 23 23 22 22 21 20 20 20 21 22 22 21 20 20 20 20 20 21 21 22 22 22 21 20 19 19 18 16 16 16 17 17 17 17 17 17 17 16 17 18 18 18 17 17 16 15 14 14 13 13 13 12 11
37 39 39 39 39 39 37 37 37 38 37 36 38 40 41 41 40 37 37 38 37 36 37 36 37 38 35 33 34 33 30 29 28 26 25 24 24 23 21 20 21 22 22 23 23 22 22 21 20 19 19 19 19 20 21 21 20 20 20 20 19 17 17 17 17 17 17 17 16 16 16 17 19 19 18 17 16 15 14 13 13 12 12 12 11 10
39 41 39 38 38 37 37 38 38 37 36 37 39 39 39 41 41 40 40 39 37 37 37 36 35 39 40 35 32 33 32 31 30 28 27 26 25 24 22 21 22 23 23 24 24 24 23 22 21 20 19 19 19 19 20 20 21 21 21 21 21 20 19 18 18 17 17 18 17 16 17 19 20 19 18 17 16 15 14 13 13 12 11 10 10 10
39 40 40 40 39 37 37 38 38 38 38 38 39 38 38 39 41 42 43 41 38 39 39 34 33 39 42 35 31 34 34 32 32 30 28 27 26 25 24 22 22 23 24 25 25 24 24 23 23 22 20 19 20 20 21 21 21 22 22 22 22 22 21 20 19 18 18 18 18 18 18 20 20 20 19 17 17 16 15 14 13 12 11 10 9 9
38 40 42 41 40 39 38 38 37 37 38 38 39 39 38 38 38 38 40 41 40 41 39 33 32 39 41 35 32 34 34 34 33 31 30 29 28 26 25 24 23 24 25 25 25 25 24 24 24 24 23 21 22 23 23 23 22 23 23 23 23 24 23 22 21 20 19 19 19 19 19 20 21 20 19 18 17 16 16 15 14 13 11 10 9 9
38 40 42 40 39 39 38 38 37 35 36 38 39 39 39 39 39 35 35 38 37 37 37 35 38 43 40 35 33 33 35 35 34 33 32 30 30 28 27 25 24 25 26 26 26 26 25 25 23 23 24 24 24 24 24 24 24 24 24 24 24 25 24 23 23 22 21 20 20 20 20 21 21 20 19 19 18 18 17 16 15 13 12 11 10 10
36 39 39 39 39 39 39 39 38 36 37 38 37 38 40 41 40 38 36 36 34 33 36 38 43 44 38 34 35 34 35 35 34 34 33 32 32 30 28 27 26 26 27 28 28 27 27 26 24 23 23 25 25 25 24 25 25 26 26 26 26 26 25 25 24 23 23 22 21 21 21 21 21 20 20 20 20 19 18 17 16 14 13 12 12 11
36 38 38 39 39 39 39 38 39 39 39 38 37 39 40 38 37 38 36 35 34 31 33 37 43 43 39 38 40 37 35 35 34 34 34 34 33 31 30 29 28 28 27 28 29 28 28 28 27 24 23 25 26 25 25 26 27 28 28 28 28 27 27 27 26 25 24 23 23 23 23 23 22 22 22 21 20 19 18 17 16 15 14 14 13 12
36 37 37 38 38 38 39 39 40 41 40 39 39 39 38 37 37 37 36 36 35 31 32 38 42 42 41 42 43 41 38 36 35 34 34 34 34 32 31 31 30 29 28 29 29 28 29 29 28 27 25 25 26 26 26 27 29 30 30 30 30 30 30 29 27 26 25 26 25 25 25 24 24 23 23 22 20 20 19 18 17 16 16 15 14 12
35 35 36 38 38 37 38 39 41 42 41 40 40 39 38 38 38 38 37 38 34 30 34 41 41 40 42 45 42 39 38 37 36 35 35 35 35 33 32 32 32 31 29 29 29 29 30 30 30 29 28 27 27 27 27 27 29 30 31 31 31 31 31 30 28 27 27 27 27 27 27 26 25 24 23 22 21 21 20 19 18 17 17 16 14 13
34 35 36 37 37 37 38 39 41 41 41 41 41 41 40 40 39 39 40 40 36 30 29 34 41 43 43 43 39 37 38 39 38 37 36 35 35 34 33 33 33 33 32 31 30 30 31 32 32 31 30 30 29 29 28 27 28 29 31 32 32 32 32 31 30 29 28 28 28 28 28 27 27 26 25 24 22 22 21 20 19 18 18 16 15 13
33 34 36 37 37 37 37 37 39 40 41 42 43 43 41 41 41 40 39 38 38 36 28 25 38 46 41 38 38 36 37 38 39 40 38 36 36 35 34 33 33 34 33 31 31 31 32 32 32 32 33 32 31 30 29 28 28 29 30 32 33 33 33 33 32 31 30 29 28 28 28 28 28 27 26 25 24 23 23 22 21 20 19 18 17 15
33 34 36 37 37 37 36 36 38 39 40 41 42 42 41 42 43 41 38 37 38 41 37 30 38 44 39 37 38 35 35 36 38 40 40 38 37 36 36 35 33 32 31 30 30 31 32 33 33 34 35 34 32 32 31 30 28 27 29 32 33 33 33 34 34 33 32 30 29 30 30 29 29 28 27 26 25 25 24 23 23 21 20 19 18 17
32 33 35 37 36 36 36 37 38 38 39 41 42 43 43 43 44 43 41 40 39 41 42 40 42 43 39 38 38 36 36 35 35 38 40 39 38 38 38 36 34 32 30 30 29 28 29 29 28 31 35 35 33 33 32 30 29 28 28 30 32 32 33 35 36 36 34 33 32 31 31 30 30 29 28 27 26 26 26 25 24 23 22 21 20 19
31 33 34 35 35 36 37 37 38 38 40 41 41 42 43 43 43 43 44 44 42 42 43 40 42 45 41 39 39 38 37 36 35 36 38 39 39 39 39 38 36 34 31 30 29 27 26 25 24 26 30 30 31 34 34 32 30 29 28 28 30 33 34 35 36 37 36 35 35 33 32 32 31 30 29 28 28 28 28 27 26 25 24 23 22 21
32 33 34 34 34 35 36 37 40 40 40 41 41 42 43 43 43 43 44 44 44 44 42 39 42 46 43 40 40 39 38 37 36 36 37 39 40 40 41 39 38 37 35 32 31 29 27 26 24 25 27 27 28 31 33 33 33 31 29 27 28 32 35 36 36 37 37 38 37 36 34 34 33 32 31 30 30 30 30 29 27 27 26 25 24 23
33 34 35 35 35 36 37 39 40 40 39 40 42 42 43 43 43 43 43 44 45 45 43 44 47 47 44 42 42 41 40 39 38 37 37 38 40 41 42 42 40 39 38 36 33 32 30 28 27 26 27 28 29 30 30 32 33 33 31 29 28 29 33 35 36 37 38 39 39 38 37 36 35 34 33 33 32 32 31 30 29 28 27 27 26 25
31 33 35 36 37 37 38 38 39 39 39 40 41 42 43 43 43 44 44 45 46 44 45 47 48 47 45 45 44 43 43 41 40 39 38 38 40 41 43 44 43 42 41 40 37 34 32 30 30 30 29 29 30 31 32 32 32 33 33 32 30 29 30 33 36 37 38 39 40 39 39 38 38 37 35 35 34 33 32 31 30 29 28 28 27 27
29 31 32 34 35 37 37 37 38 38 39 39 40 41 43 43 44 44 44 45 45 45 47 48 48 47 47 46 45 45 45 44 43 42 41 40 40 41 43 45 45 45 44 43 40 37 35 33 32 33 33 32 30 30 32 33 32 33 34 35 33 31 30 31 33 35 36 38 40 40 40 41 40 39 38 37 36 35 34 33 32 31 29 28 28 28
28 28 29 31 32 34 35 36 36 37 37 38 39 40 41 43 44 44 44 45 45 45 47 47 47 47 47 46 47 46 46 47 46 45 44 43 41 42 43 45 47 47 47 46 44 41 38 36 35 35 35 34 31 29 30 32 32 32 34 38 37 33 31 31 31 32 33 35 37 39 40 41 42 41 40 39 38 37 36 35 33 32 31 30 29 29
27 27 28 29 30 31 32 33 34 35 36 37 38 39 39 41 43 44 44 45 45 46 47 46 46 47 47 47 47 47 47 47 48 47 46 45 44 43 44 46 48 49 49 49 48 45 42 40 38 37 36 35 32 29 29 30 31 30 31 35 37 35 33 33 32 31 31 31 33 36 38 40 42 42 41 40 40 39 38 37 35 34 33 31 30 29
25 26 27 28 29 30 31 31 32 33 33 34 36 37 38 40 42 43 44 44 45 47 46 45 46 47 48 48 47 47 48 48 48 49 48 47 47 46 45 46 48 50 51 52 51 49 46 44 41 40 39 38 35 32 30 31 31 30 29 30 33 34 34 34 33 32 32 31 32 33 35 38 40 41 41 42 42 41 41 40 38 36 34 33 32 31
24 25 26 27 28 29 29 30 31 31 32 34 35 35 35 38 39 41 43 44 45 46 46 47 48 47 46 47 47 48 49 50 49 49 49 49 48 48 47 47 48 50 52 53 54 52 50 47 45 43 42 42 39 37 34 33 32 32 30 30 31 33 34 35 35 34 34 33 33 33 34 36 38 39 40 41 42 43 43 42 40 39 37 36 34 33
23 24 25 26 27 27 28 29 30 30 33 35 34 33 34 35 36 38 41 42 43 45 46 49 50 48 45 46 47 48 49 50 50 50 51 51 50 49 49 49 49 50 51 53 55 56 55 53 50 48 46 46 44 41 39 36 35 34 34 33 33 33 33 33 34 34 35 36 35 35 35 36 37 38 40 41 42 44 44 44 43 41 40 39 37 35
23 24 25 26 27 27 27 28 29 31 33 33 32 33 35 35 35 37 38 39 41 44 46 47 50 49 47 47 48 48 48 49 50 50 52 52 52 52 51 51 51 51 51 53 54 56 58 59 57 54 52 50 49 46 43 41 39 38 37 37 37 36 35 34 33 33 35 38 38 37 37 37 37 38 39 40 42 43 44 45 45 44 43 42 40 37
25 25 25 26 27 28 28 28 30 31 31 30 32 34 34 35 36 36 37 38 39 41 43 45 48 49 48 48 49 49 49 50 51 51 52 53 54 54 53 53 53 52 52 53 53 55 56 58 58 58 57 56 53 51 47 45 43 42 40 40 40 39 39 38 36 35 36 38 40 41 40 39 38 39 39 40 41 42 43 44 45 45 45 44 43 41
28 28 27 28 28 28 29 30 31 30 30 31 33 33 33 34 35 36 37 38 38 39 41 43 45 47 48 49 49 50 50 51 52 53 54 53 54 56 56 55 55 55 55 54 54 54 54 55 56 57 59 60 59 56 52 49 48 46 45 43 42 42 42 41 41 40 38 38 40 42 43 42 40 40 40 40 40 41 42 43 44 45 46 45 44 43
29 30 30 30 30 30 30 31 31 31 32 33 33 33 33 34 35 35 37 37 37 38 40 41 42 44 46 47 49 49 51 52 52 56 57 54 54 56 57 57 57 57 57 56 55 55 55 55 55 56 58 61 62 62 59 55 53 52 50 48 46 44 43 43 43 43 43 41 40 42 44 45 43 42 42 41 40 40 42 43 44 45 46 45 45 44
26 28 29 30 31 31 31 32 32 33 33 33 32 33 34 35 35 36 37 38 38 38 39 40 41 42 43 45 47 47 49 50 52 56 58 54 53 55 56 58 58 58 58 58 58 57 56 56 56 56 57 59 62 64 64 62 59 57 55 53 51 48 45 44 44 45 46 45 43 43 45 47 46 45 44 43 42 42 43 44 45 45 46 45 45 45
21 23 25 27 28 30 31 32 32 34 34 33 33 33 34 35 35 36 38 40 38 38 40 41 41 42 43 44 45 46 47 48 50 53 54 52 51 53 54 56 58 59 59 59 59 58 58 58 58 58 57 58 60 63 65 66 65 63 60 58 56 53 50 48 47 47 48 49 48 46 46 48 49 48 47 46 46 46 45 45 46 46 46 46 46 45
15 18 21 23 24 26 28 29 30 32 33 32 33 33 33 34 35 36 39 39 38 39 41 42 42 43 43 44 45 46 47 48 48 50 51 50 49 50 50 51 54 57 59 59 59 59 59 59 60 60 59 59 60 61 63 65 66 66 66 64 62 59 56 53 51 50 51 52 51 50 50 50 50 50 50 50 50 49 47 46 46 47 47 47 46 45
11 13 16 18 20 22 24 25 26 28 30 31 31 31 32 33 35 36 37 38 39 40 42 42 43 44 44 45 46 46 47 48 49 49 50 50 49 49 49 48 49 51 55 58 59 60 60 60 60 61 62 62 61 61 62 62 63 65 66 67 67 65 63 59 56 54 54 54 53 53 53 52 50 50 51 53 52 50 47 46 45 45 46 47 46 45
12 12 14 15 17 18 20 21 23 25 26 27 28 29 30 32 33 34 36 38 40 42 42 43 44 45 45 46 47 48 48 49 50 51 51 51 50 50 50 49 49 48 50 53 57 59 60 60 60 61 63 64 63 63 63 63 62 62 63 64 66 66 66 64 62 60 58 57 56 56 56 54 53 52 52 53 54 52 49 47 45 43 43 44 44 44
15 15 15 16 17 18 19 20 22 22 23 24 25 26 27 29 30 31 33 36 38 40 41 43 44 45 46 47 48 49 50 51 52 53 54 54 53 53 53 52 52 51 50 51 53 56 58 59 60 61 63 65 66 65 65 65 64 63 61 61 62 64 64 63 63 63 61 60 59 59 58 57 56 55 54 53 53 54 53 50 47 44 43 42 41 42
17 17 18 19 19 20 21 21 22 23 24 25 25 25 26 27 28 29 31 32 34 36 38 39 41 43 45 46 47 49 51 53 55 56 57 57 57 57 57 57 56 56 55 54 54 55 56 58 59 60 62 65 67 67 67 67 66 64 63 62 61 62 62 62 62 63 63 62 61 61 60 59 59 58 57 54 52 52 54 53 50 45 43 41 40 41
21 21 22 22 21 21 22 22 23 24 25 25 25 24 24 25 26 27 28 29 30 31 33 34 36 38 39 40 41 42 45 49 52 56 59 61 61 61 61 61 61 61 60 59 58 58 58 58 58 59 61 63 67 69 69 69 68 67 65 63 62 62 63 63 63 63 64 63 63 62 62 62 61 60 59 57 54 52 52 54 53 48 45 44 42 41
24 25 26 26 25 24 24 24 25 26 26 26 25 25 24 24 25 25 26 26 26 27 28 29 30 32 33 35 36 36 38 40 43 48 53 57 61 63 65 66 66 66 65 65 64 63 62 61 60 60 60 62 65 68 71 71 71 69 68 66 65 64 64 64 64 65 65 65 64 63 63 63 62 61 60 59 57 54 52 53 55 52 48 46 44 43
25 27 28 27 27 27 28 29 29 30 29 28 29 28 27 26 27 27 26 26 26 25 25 25 26 27 28 30 32 33 34 35 37 39 43 48 53 58 62 65 68 69 69 69 69 69 68 66 64 63 62 62 63 66 70 72 73 73 70 69 67 66 65 65 66 66 67 67 66 65 63 63 63 62 62 61 60 58 55 53 55 55 52 49 47 46
25 27 28 29 30 31 31 31 31 33 33 32 32 31 29 29 30 30 29 29 28 28 27 27 27 27 27 27 28 29 29 30 32 33 36 39 43 48 53 57 62 66 69 70 71 73 73 73 71 69 67 65 65 66 68 71 74 76 74 72 70 68 67 67 68 67 67 68 68 66 65 65 63 62 62 62 61 60 58 55 55 56 55 52 50 48
26 28 29 31 32 33 32 31 32 34 35 34 33 32 31 32 34 34 33 32 31 31 31 30 30 29 29 29 29 29 29 29 30 31 33 34 36 40 43 47 51 56 61 65 67 70 73 76 77 76 73 71 69 68 68 69 73 76 78 76 74 71 69 69 69 69 68 68 68 67 66 66 65 63 62 62 62 62 60 58 56 55 55 55 54 51
29 30 31 32 32 31 32 33 35 37 36 35 35 34 34 35 36 36 36 35 34 34 34 33 33 32 32 31 32 32 32 32 32 32 33 34 36 37 40 42 45 48 52 56 60 63 66 71 75 78 79 78 75 73 72 71 71 74 78 80 79 76 72 70 70 71 71 70 68 68 67 66 66 65 62 61 61 62 61 60 59 56 54 54 55 53
Wind_Direction
205 205 207 207 206 206 206 205 204 200 199 196 196 197 197 201 202 195 190 187 188 194 199 199 203 207 209 210 210 208 203 199 197 192 189 184 178 174 171 167 165 167 170 173 177 181 180 177 177 178 176 170 171 173 175 178 174 171 173 177 185 188 181 178 177 173 169 163 158 156 154 152 149 145 141 139 137 135 132 130 128 128 130 130 130 131
204 205 206 205 206 206 206 208 204 199 199 196 197 197 197 204 203 197 194 190 190 197 199 199 203 210 214 216 216 211 207 208 210 209 206 197 187 185 181 171 164 165 169 172 175 181 182 183 182 180 180 177 176 178 179 180 180 177 177 180 188 189 182 179 176 173 167 159 157 157 155 153 152 150 147 144 143 141 139 136 134 133 134 133 133 133
204 204 205 205 207 206 206 208 205 203 201 196 198 197 199 205 202 200 200 193 191 197 198 196 198 207 212 216 218 213 213 215 214 213 209 202 198 200 194 177 167 168 173 175 176 180 183 185 186 184 184 183 181 181 181 182 183 182 180 184 191 189 181 178 176 170 165 159 159 159 157 158 159 156 152 149 148 146 144 143 140 138 137 136 135 135
205 205 205 206 207 206 207 207 206 206 203 200 199 195 201 206 201 203 203 195 193 194 199 196 192 203 211 214 218 217 219 220 216 213 209 210 212 215 210 192 182 180 178 179 180 182 184 186 189 189 188 187 185 184 184 187 186 186 186 186 191 190 179 176 174 169 167 165 163 162 163 164 164 162 157 154 152 150 148 147 145 142 141 140 138 137
206 206 205 205 206 206 207 206 205 205 204 205 199 194 202 204 202 205 202 197 197 196 201 197 189 201 209 212 216 216 217 217 213 209 207 212 212 212 215 205 200 196 186 185 186 185 186 188 191 192 190 188 188 187 188 190 189 188 188 186 191 191 178 172 172 171 173 172 168 169 170 170 168 165 161 157 155 153 152 150 149 147 145 144 143 141
204 205 204 205 206 206 206 206 205 204 203 204 201 201 205 202 203 206 201 198 199 198 201 198 193 201 205 208 213 213 213 212 209 207 207 209 207 203 202 200 204 207 199 192 191 190 192 194 194 194 192 190 190 191 191 192 192 190 187 184 190 191 179 172 174 175 178 179 176 176 175 172 167 165 163 160 159 159 157 155 155 153 152 150 149 148
201 200 203 206 206 205 206 206 206 205 204 204 203 204 204 202 204 205 202 199 200 201 200 195 197 201 204 207 208 209 212 212 211 212 213 213 211 205 200 197 199 203 203 198 193 192 198 201 199 196 196 194 192 193 194 192 193 193 188 184 188 189 181 175 177 180 182 183 182 180 177 170 165 163 166 167 166 165 163 163 162 161 160 159 158 157
199 198 203 206 205 206 205 205 206 205 205 206 205 203 203 203 203 204 203 201 204 205 197 194 200 203 207 206 203 207 211 212 215 219 222 220 218 214 208 205 204 204 202 198 193 190 194 202 203 201 200 199 195 194 196 194 193 193 190 186 185 187 185 181 183 186 186 187 188 184 176 170 167 166 170 175 174 172 172 171 171 170 169 168 167 167
197 199 203 205 206 207 206 206 207 205 207 209 205 203 205 205 204 203 202 204 209 206 195 197 202 205 215 211 206 211 212 211 217 224 228 225 222 223 219 215 214 212 208 201 195 191 190 196 202 204 205 203 199 196 197 196 194 192 189 188 187 187 189 188 189 191 191 191 192 188 178 173 172 172 176 180 180 180 180 179 179 178 177 177 176 175
196 200 202 204 205 207 206 207 207 205 208 210 206 206 208 207 206 204 203 207 211 205 198 201 201 204 218 216 209 212 212 212 217 222 229 230 228 229 226 223 221 220 216 207 201 196 193 196 201 205 207 206 203 200 199 198 196 193 188 188 190 191 194 194 193 194 196 196 195 192 182 176 178 180 181 183 183 185 185 185 186 185 184 183 182 182
197 201 202 204 206 207 207 207 207 207 209 209 206 208 209 209 209 207 206 209 211 208 204 204 201 203 215 218 212 211 211 213 216 219 226 229 230 232 229 227 225 224 220 214 211 210 206 204 204 207 210 210 208 206 204 200 199 196 191 189 191 195 199 200 198 196 197 199 198 192 184 182 184 185 186 185 186 190 191 190 192 192 191 188 186 186
199 202 202 203 205 206 207 207 208 208 208 207 208 209 209 211 212 211 211 211 210 210 209 209 206 206 215 218 213 211 211 214 216 218 222 225 228 231 230 227 226 227 224 219 217 218 218 215 210 210 212 211 212 213 211 206 202 200 196 192 192 195 202 205 203 199 198 198 197 190 186 188 190 190 190 188 187 191 194 196 199 200 199 194 189 189
201 203 203 203 204 204 205 207 209 209 207 207 209 209 209 211 213 214 216 213 210 210 211 213 209 209 217 220 215 213 214 215 216 217 219 222 226 229 230 228 225 226 227 222 217 217 222 222 218 215 213 211 211 212 213 211 207 204 201 197 194 195 201 206 207 204 200 198 195 190 188 192 194 194 194 191 188 191 195 201 205 206 206 201 193 189
202 203 204 204 204 203 204 206 207 207 208 209 210 209 209 211 212 215 218 216 213 213 213 212 210 213 220 220 216 215 215 215 215 216 219 221 223 227 230 230 227 226 227 225 221 220 221 222 222 221 216 211 210 210 210 210 208 207 205 202 199 199 201 204 207 207 204 199 194 191 191 195 198 197 195 193 192 193 197 203 208 210 210 206 198 190
204 204 205 205 204 203 205 207 206 206 207 209 211 210 209 211 212 216 221 221 219 220 218 212 213 220 222 219 217 215 215 215 215 216 218 219 220 224 228 231 231 230 228 225 225 225 224 223 223 222 218 211 209 209 208 208 207 207 207 205 203 203 203 204 204 205 205 201 196 194 195 199 202 200 196 194 195 197 200 204 207 208 207 206 205 199
206 207 205 205 205 204 205 208 207 206 208 210 212 211 210 211 210 211 219 221 220 224 224 215 216 223 221 217 218 216 215 217 215 214 216 217 218 221 226 231 233 232 230 225 224 225 228 229 227 225 221 215 210 209 207 207 207 206 206 207 206 206 207 207 205 204 203 201 198 198 199 202 204 203 199 196 198 200 202 204 206 206 205 206 211 211
209 210 207 206 206 205 206 207 206 206 208 210 212 213 214 214 212 211 217 219 216 220 224 219 220 225 224 220 219 216 215 216 215 213 213 215 217 219 224 230 233 232 230 226 224 223 226 230 230 228 225 221 216 211 206 205 207 206 206 207 208 208 209 210 209 206 203 201 199 201 203 206 207 205 203 201 201 202 203 205 206 207 208 210 214 215
209 211 210 209 208 207 206 207 207 207 209 209 209 213 215 216 216 216 218 220 216 217 223 223 223 225 225 224 221 216 214 215 213 212 211 212 214 217 222 227 231 232 230 226 223 222 222 225 228 226 223 223 223 218 211 207 207 208 207 207 208 209 210 212 211 208 205 202 201 203 205 208 209 207 207 206 204 205 206 207 208 209 210 212 214 215
208 211 212 211 211 209 207 208 209 209 208 210 211 212 213 214 216 216 217 220 216 213 221 226 225 223 222 224 221 216 213 213 213 211 209 210 211 215 219 224 228 230 230 227 223 220 220 221 224 224 220 219 223 224 221 215 212 210 209 209 208 209 211 213 213 210 206 204 203 204 206 209 210 209 209 208 207 208 209 210 209 210 211 213 216 217
207 211 213 212 213 212 210 210 211 210 208 211 213 214 213 213 216 214 215 218 214 212 223 229 228 224 223 224 222 217 215 214 214 212 209 209 210 213 218 222 225 226 227 227 224 220 220 220 222 222 217 216 219 224 226 223 219 215 212 211 210 210 213 214 214 213 210 208 206 206 208 210 211 211 210 209 208 209 211 211 210 210 212 215 218 221
205 211 214 213 214 215 212 211 212 211 210 211 213 214 213 214 217 217 216 216 211 208 221 233 233 227 225 226 223 219 217 214 214 214 211 209 210 214 219 221 224 225 223 223 224 223 222 222 223 221 216 213 215 221 226 226 224 220 216 215 213 212 214 215 216 215 214 212 210 210 211 212 212 212 211 210 209 210 211 211 210 210 212 216 220 223
204 209 213 214 214 216 214 212 213 214 213 214 215 216 214 214 218 219 221 221 216 210 211 226 233 228 226 229 227 223 220 215 213 215 213 212 212 215 219 220 223 226 224 222 222 224 225 225 225 221 215 212 213 217 222 224 225 223 220 218 216 214 214 215 217 217 216 215 214 213 214 215 215 215 213 212 211 211 213 212 211 211 212 216 221 224
206 208 212 214 215 216 216 214 215 215 215 215 216 218 217 217 218 218 219 222 220 217 214 222 233 230 225 229 230 227 224 218 214 215 214 214 214 215 217 219 222 226 227 225 222 224 228 230 230 223 215 213 213 215 219 221 222 223 222 220 218 216 216 216 217 218 218 217 216 216 216 217 219 219 217 215 213 213 214 213 212 212 213 217 221 224
208 209 212 214 215 215 216 216 216 216 217 216 216 218 218 219 220 219 220 223 221 219 219 224 235 234 226 227 229 228 227 222 217 215 215 215 214 213 216 218 220 224 227 228 224 221 226 233 234 225 217 215 214 215 219 221 221 222 222 221 219 216 217 218 218 218 219 218 218 218 218 219 220 222 221 220 217 216 216 216 214 213 214 218 222 225
210 210 212 213 215 215 216 216 217 217 217 217 217 218 219 220 221 220 223 225 225 223 220 223 232 233 228 227 229 229 228 225 221 217 214 214 213 212 215 218 219 221 225 229 225 219 220 228 233 229 225 224 220 216 218 220 222 224 224 223 220 217 217 218 219 219 219 220 220 219 219 220 221 222 223 223 221 220 220 219 217 215 216 218 221 225
213 213 212 213 215 215 215 216 216 217 217 218 217 218 219 220 221 221 222 225 227 227 224 223 230 231 228 228 229 229 230 228 225 220 216 214 214 213 214 217 218 219 221 226 226 220 216 219 225 229 232 235 231 225 220 219 222 225 226 227 225 222 220 218 219 220 220 221 222 221 221 221 221 222 223 224 224 223 223 222 221 219 218 219 221 225
217 215 214 215 216 216 216 216 216 216 217 218 218 218 219 220 220 221 222 224 227 228 226 227 232 233 231 230 229 230 230 230 229 225 220 216 215 215 215 216 217 218 219 222 225 223 219 217 219 223 228 234 236 236 232 227 225 225 226 229 229 227 225 223 221 222 221 222 223 223 223 223 222 222 223 225 225 225 225 225 225 223 222 221 223 225
222 221 219 220 220 220 220 219 217 216 217 217 217 218 219 220 221 222 222 224 226 227 228 229 232 234 233 231 231 230 230 230 230 228 225 220 217 217 217 217 217 217 218 219 222 223 222 221 221 220 221 225 232 238 239 238 235 229 225 227 230 228 227 227 226 225 223 224 224 224 225 226 225 224 224 225 227 227 227 228 228 228 226 225 225 227
226 226 225 225 225 225 225 225 222 220 219 218 217 217 218 219 221 222 223 224 225 227 229 230 232 234 234 233 232 232 231 231 230 229 228 225 221 218 218 218 218 217 217 218 220 222 223 223 225 224 221 219 225 234 239 240 239 235 229 226 227 228 227 227 229 229 228 227 227 226 226 227 228 227 226 226 228 229 230 229 230 230 230 229 229 230
228 228 228 228 229 229 229 230 229 227 225 222 220 218 218 219 220 222 223 224 225 227 229 230 232 234 234 234 234 233 233 233 232 231 230 228 225 221 219 218 218 218 218 218 219 221 222 224 226 227 225 220 219 228 238 239 238 240 236 228 224 226 227 227 229 232 232 233 233 231 229 229 230 229 229 229 229 231 232 231 230 231 232 232 231 232
228 228 228 229 230 231 231 232 232 232 230 228 225 222 220 220 220 221 223 224 225 226 228 230 232 233 233 234 234 234 234 234 234 233 232 231 228 224 221 219 219 219 219 218 219 220 221 223 225 227 228 224 217 222 235 239 238 242 242 231 224 224 226 227 228 231 233 235 236 236 235 235 234 233 232 231 231 233 234 234 233 232 232 232 233 233
229 228 228 229 230 231 232 232 233 233 233 232 230 227 224 223 222 222 223 224 225 227 228 230 232 232 232 233 235 235 235 235 235 235 235 234 232 228 224 221 221 221 220 220 220 220 220 221 224 226 228 227 220 218 228 237 239 241 242 236 230 228 228 228 229 230 233 235 236 237 237 238 239 238 236 235 234 235 236 236 236 235 234 234 234 234
231 230 229 229 230 231 231 232 233 233 234 234 232 229 228 227 225 225 224 224 226 227 228 230 230 230 232 234 235 236 236 236 235 235 236 237 236 233 229 225 223 222 222 221 221 221 221 220 222 224 227 228 224 217 219 229 236 239 241 241 239 237 234 233 231 231 233 235 237 238 237 237 239 240 240 239 238 237 238 238 238 238 237 236 235 235
231 232 231 230 231 231 231 232 233 233 234 235 233 232 232 230 228 227 226 225 226 228 229 231 231 230 232 234 235 236 237 237 237 236 235 236 237 237 234 230 227 225 224 223 223 223 224 224 225 226 226 228 227 220 216 221 228 234 238 241 243 244 242 240 237 235 234 235 237 239 240 239 238 239 239 240 240 240 240 240 240 239 240 240 239 238
230 231 231 232 232 232 232 232 232 232 234 235 234 234 234 233 232 231 229 227 228 229 230 231 232 231 232 234 235 236 237 238 239 238 237 236 236 238 237 234 231 229 227 225 225 225 226 228 229 229 227 227 229 225 218 217 222 227 232 237 241 244 245 245 244 241 238 237 237 239 241 241 241 241 241 240 240 240 240 241 241 241 241 241 241 241
231 231 231 231 233 233 233 232 232 233 235 235 235 235 235 235 234 234 233 231 230 230 231 231 232 231 231 233 234 235 237 238 239 240 239 237 236 237 238 237 235 232 230 229 227 226 226 228 229 229 227 225 228 228 223 218 219 223 226 231 236 241 245 247 248 246 243 241 240 239 240 241 242 242 243 242 241 241 241 242 242 242 242 242 242 242
233 233 232 231 232 232 232 233 234 235 235 234 235 236 236 236 236 236 236 234 232 233 233 233 233 232 232 233 234 235 236 237 238 239 239 239 237 237 238 239 238 235 233 232 231 230 228 228 228 228 227 225 226 228 226 221 220 222 224 227 231 237 242 246 249 249 247 245 243 241 242 243 243 244 245 245 244 243 244 244 244 243 243 243 242 242
234 234 234 233 233 232 233 234 234 234 234 234 235 236 237 238 238 238 239 237 235 235 235 235 235 235 234 234 234 235 236 237 238 240 239 238 239 239 238 239 239 238 236 234 233 233 232 231 229 227 228 227 226 226 227 225 223 224 224 226 228 232 237 242 246 248 249 249 246 244 244 245 244 245 245 246 246 245 245 245 244 244 244 244 243 243
236 236 235 235 235 234 234 235 235 235 235 235 235 236 236 237 238 239 241 240 238 238 238 237 237 237 237 236 236 237 237 237 239 240 239 238 240 241 240 240 240 240 240 237 235 234 234 234 232 229 228 228 227 227 227 227 226 226 226 226 227 228 232 237 242 246 248 249 247 246 245 245 245 244 245 245 245 245 245 245 245 244 243 243 243 243
237 237 236 236 236 236 236 237 238 238 238 237 237 237 236 237 237 238 240 240 240 241 242 241 240 239 238 238 238 239 239 239 240 241 241 240 240 241 242 241 241 241 242 241 238 236 235 234 234 233 230 229 228 228 228 228 228 228 229 228 228 228 230 233 238 242 246 247 247 246 245 245 245 244 244 245 245 243 242 242 243 243 243 242 242 242
233 234 235 235 235 236 237 238 239 241 241 240 240 241 241 241 240 240 241 241 240 241 243 243 243 242 241 241 241 241 241 242 242 243 243 242 241 241 242 242 242 242 242 242 241 239 237 235 235 234 233 231 229 229 229 229 229 229 230 230 230 230 230 231 234 239 243 245 246 247 247 246 245 244 244 245 245 245 245 243 241 241 240 240 240 240
232 230 231 233 234 235 235 236 238 241 242 242 243 244 245 244 244 244 245 244 243 241 242 243 244 244 244 244 244 245 244 244 245 245 245 245 244 243 243 242 242 242 243 243 243 241 239 237 236 235 235 234 232 230 230 230 230 230 230 231 232 232 232 232 233 235 239 242 243 245 246 247 248 247 246 246 247 248 249 250 248 245 242 239 237 236
239 234 230 230 231 232 232 233 235 238 240 242 242 243 245 246 248 249 249 248 247 246 245 245 245 245 245 245 246 247 247 248 248 247 247 248 247 246 246 245 243 242 242 243 244 243 241 239 237 236 235 235 234 232 232 231 231 231 231 232 233 233 233 233 233 233 236 239 241 242 243 245 247 249 248 248 248 247 247 248 249 250 249 246 239 233
242 240 238 236 233 232 232 234 236 238 240 242 243 243 245 247 248 250 250 250 251 251 250 249 248 248 248 247 247 248 248 249 250 250 250 250 250 250 249 248 247 245 243 243 243 244 243 241 239 237 236 235 235 234 233 233 232 231 231 232 232 233 233 233 232 232 234 237 239 240 242 244 246 248 248 248 248 247 246 246 245 245 246 247 245 239
241 240 241 240 239 238 239 239 241 242 242 243 244 244 245 246 246 248 249 249 250 250 250 250 249 249 249 249 249 250 250 250 251 251 252 252 252 252 252 251 251 249 247 245 244 243 244 243 241 239 237 236 235 234 234 234 234 233 232 231 231 232 232 232 232 232 232 235 237 239 241 243 245 246 248 248 247 247 246 246 245 244 243 242 243 243
242 241 241 241 241 241 241 242 243 243 242 243 244 244 245 246 246 246 247 248 248 248 249 249 248 247 247 248 248 249 250 251 251 251 252 252 253 253 253 253 253 252 251 250 247 245 243 243 243 242 239 237 236 235 234 234 234 234 234 232 231 232 233 233 232 232 232 233 235 237 239 242 244 245 247 248 248 247 246 244 243 243 242 240 240 241
245 244 243 244 243 243 244 244 245 245 244 243 244 245 245 246 247 248 249 249 249 249 248 248 247 246 246 246 247 249 251 252 252 251 251 252 252 253 253 253 253 253 253 253 251 249 246 244 243 243 242 240 238 236 235 234 234 234 235 235 232 231 233 234 233 232 232 232 234 236 237 240 243 245 247 248 249 249 247 244 243 241 239 238 237 238
251 249 249 248 247 246 245 244 245 247 247 246 246 246 246 248 249 250 252 252 252 251 250 249 249 248 248 248 249 250 251 252 253 253 253 253 252 252 253 253 253 253 253 253 253 252 250 247 245 243 243 242 241 238 236 234 233 233 234 236 235 234 233 234 234 234 233 233 234 235 237 239 242 244 246 247 248 248 247 245 244 241 238 236 235 235
258 256 254 252 250 248 247 247 248 248 248 248 248 248 249 250 250 251 252 252 252 252 251 251 251 252 251 251 250 249 249 251 252 253 254 255 254 254 254 254 254 254 253 253 253 253 252 251 248 245 244 243 243 241 238 236 234 233 233 234 236 236 236 235 235 235 235 235 234 234 235 237 239 242 245 247 247 247 247 246 245 243 240 236 234 235
257 255 254 253 251 251 250 250 250 250 250 250 250 250 249 250 250 251 251 252 252 252 252 253 253 252 251 250 247 246 249 252 255 256 256 257 257 257 257 257 257 256 255 255 254 254 254 253 251 248 246 245 244 243 241 238 236 234 233 232 234 236 237 238 237 236 236 236 236 235 235 235 236 238 241 244 245 245 246 245 245 244 241 238 237 236
256 254 253 254 255 256 254 252 251 252 252 253 253 251 249 249 250 251 251 251 250 251 251 252 252 252 251 249 246 247 251 255 258 260 260 261 261 261 261 260 260 259 259 258 256 256 255 254 253 251 249 247 245 244 243 241 239 236 234 232 232 234 236 238 239 239 238 237 237 237 235 235 236 237 238 240 243 244 245 245 245 245 243 242 241 239
Height
5855 5858 5861 5865 5869 5872 5874 5875 5876 5879 5882 5885 5888 5890 5892 5894 5895 5897 5899 5900 5902 5903 5905 5906 5908 5910 5911 5913 5915 5916 5917 5918 5919 5919 5920 5920 5920 5921 5922 5923 5924 5925 5926 5926 5928 5929 5930 5931 5931 5933 5934 5934 5935 5936 5937 5938 5939 5940 5941 5941 5942 5943 5944 5945 5946 5946 5947 5948 5948 5949 5949 5950 5951 5951 5952 5952 5953 5953 5954 5954 5954 5954 5955 5955 5956 5956
5852 5855 5858 5862 5864 5867 5869 5871 5875 5880 5882 5885 5887 5889 5891 5892 5893 5896 5898 5899 5901 5902 5904 5906 5908 5910 5911 5913 5914 5916 5917 5918 5919 5920 5921 5921 5921 5921 5921 5922 5923 5925 5925 5926 5927 5928 5929 5930 5931 5932 5933 5934 5935 5936 5937 5938 5939 5940 5941 5942 5942 5943 5944 5945 5946 5947 5948 5949 5949 5950 5950 5951 5951 5952 5952 5953 5954 5954 5955 5955 5955 5955 5956 5956 5956 5957
5849 5852 5855 5857 5860 5863 5867 5870 5875 5878 5880 5883 5885 5887 5889 5889 5892 5896 5897 5898 5899 5901 5903 5905 5907 5909 5911 5913 5914 5914 5916 5917 5919 5921 5922 5922 5922 5922 5922 5922 5923 5924 5925 5926 5926 5927 5929 5930 5931 5932 5933 5934 5935 5936 5937 5938 5940 5940 5941 5942 5943 5944 5945 5946 5947 5948 5949 5949 5950 5950 5951 5951 5951 5952 5953 5953 5954 5955 5956 5956 5956 5956 5957 5957 5957 5958
5847 5849 5851 5854 5858 5862 5865 5868 5872 5875 5879 5881 5883 5886 5887 5888 5892 5893 5893 5896 5898 5899 5902 5903 5906 5909 5911 5912 5913 5914 5916 5917 5918 5920 5921 5921 5921 5922 5923 5923 5923 5923 5924 5925 5926 5927 5928 5929 5930 5931 5932 5934 5935 5936 5937 5938 5939 5940 5941 5942 5943 5944 5945 5946 5948 5949 5949 5950 5950 5951 5951 5951 5952 5952 5953 5954 5955 5956 5956 5957 5957 5957 5958 5958 5959 5959
5843 5845 5849 5852 5855 5858 5861 5865 5868 5872 5876 5878 5881 5883 5883 5885 5888 5888 5892 5896 5897 5899 5901 5903 5906 5908 5910 5912 5913 5915 5915 5916 5917 5918 5918 5918 5920 5921 5922 5923 5923 5924 5924 5925 5926 5926 5927 5928 5929 5931 5932 5933 5934 5935 5937 5938 5939 5940 5941 5942 5943 5944 5945 5947 5948 5949 5949 5950 5950 5950 5950 5951 5952 5953 5954 5955 5956 5957 5957 5958 5958 5958 5959 5959 5960 5960
5839 5843 5847 5849 5851 5855 5858 5862 5865 5869 5872 5875 5878 5880 5880 5883 5885 5888 5893 5895 5896 5899 5900 5902 5905 5907 5909 5910 5911 5912 5913 5914 5915 5915 5916 5917 5918 5920 5921 5922 5923 5923 5924 5925 5926 5926 5927 5928 5929 5930 5931 5932 5934 5935 5936 5938 5939 5940 5941 5942 5943 5944 5945 5946 5948 5948 5949 5950 5950 5950 5951 5952 5953 5954 5955 5956 5957 5957 5958 5959 5959 5960 5960 5960 5961 5961
5836 5840 5844 5845 5848 5852 5855 5859 5862 5865 5869 5872 5874 5876 5878 5881 5884 5887 5891 5893 5895 5896 5898 5901 5903 5905 5906 5906 5908 5910 5911 5912 5913 5914 5915 5917 5918 5919 5920 5921 5921 5922 5923 5924 5925 5926 5927 5928 5929 5930 5931 5932 5933 5934 5936 5937 5939 5940 5941 5942 5943 5944 5945 5946 5947 5948 5949 5950 5950 5951 5952 5953 5954 5955 5956 5956 5957 5958 5959 5959 5960 5960 5961 5961 5962 5962
5834 5838 5840 5843 5846 5849 5852 5856 5859 5862 5866 5868 5869 5873 5876 5879 5882 5885 5889 5891 5891 5891 5897 5900 5901 5903 5903 5904 5907 5907 5908 5911 5913 5914 5915 5917 5918 5918 5920 5921 5921 5921 5922 5922 5924 5925 5926 5927 5928 5929 5930 5931 5932 5934 5935 5937 5938 5940 5941 5942 5943 5944 5945 5946 5947 5948 5949 5950 5950 5951 5952 5954 5955 5955 5956 5957 5957 5958 5959 5960 5960 5961 5962 5962 5963 5963
5832 5835 5837 5841 5844 5847 5850 5853 5856 5860 5863 5864 5867 5872 5874 5876 5879 5882 5886 5888 5887 5892 5897 5898 5899 5902 5901 5902 5906 5906 5907 5911 5912 5913 5914 5915 5916 5917 5919 5921 5921 5922 5922 5922 5922 5923 5924 5925 5927 5928 5929 5930 5932 5933 5934 5936 5937 5939 5941 5942 5943 5944 5945 5946 5947 5948 5949 5950 5951 5952 5953 5954 5955 5955 5956 5957 5957 5958 5959 5960 5960 5961 5962 5963 5964 5964
5828 5831 5834 5838 5840 5843 5846 5850 5853 5858 5859 5861 5867 5870 5871 5874 5877 5880 5883 5884 5886 5891 5894 5895 5899 5901 5899 5900 5903 5904 5906 5909 5911 5912 5913 5914 5915 5916 5918 5919 5921 5922 5922 5923 5923 5922 5923 5924 5925 5926 5927 5929 5931 5932 5934 5935 5937 5938 5940 5942 5943 5944 5945 5945 5946 5947 5949 5950 5951 5952 5953 5954 5955 5955 5955 5956 5957 5958 5959 5959 5960 5961 5962 5963 5964 5965
5826 5828 5831 5834 5837 5840 5844 5848 5852 5855 5856 5860 5865 5867 5869 5872 5875 5878 5881 5882 5885 5889 5892 5894 5897 5898 5897 5897 5899 5902 5905 5907 5909 5910 5911 5913 5914 5915 5917 5918 5920 5921 5921 5922 5923 5922 5923 5924 5925 5926 5927 5929 5931 5932 5933 5935 5936 5938 5939 5941 5942 5944 5945 5945 5946 5947 5948 5949 5950 5952 5953 5954 5954 5955 5955 5956 5957 5958 5959 5959 5960 5961 5962 5963 5964 5965
5824 5826 5828 5832 5835 5839 5843 5846 5849 5851 5855 5859 5861 5864 5867 5870 5872 5876 5878 5880 5884 5887 5890 5892 5894 5896 5895 5893 5896 5900 5903 5905 5907 5909 5910 5911 5912 5914 5915 5917 5918 5919 5920 5920 5921 5922 5923 5924 5925 5926 5927 5929 5930 5932 5934 5935 5936 5937 5938 5940 5941 5943 5944 5945 5946 5947 5948 5948 5950 5951 5953 5953 5954 5954 5955 5956 5957 5958 5959 5960 5960 5962 5962 5963 5964 5965
5821 5823 5826 5830 5833 5837 5840 5843 5846 5849 5852 5855 5857 5861 5865 5867 5870 5873 5874 5877 5882 5885 5887 5889 5892 5894 5891 5891 5895 5898 5901 5903 5905 5907 5909 5910 5911 5912 5914 5916 5917 5918 5919 5920 5920 5921 5922 5923 5925 5926 5927 5928 5929 5931 5933 5934 5935 5936 5938 5939 5940 5941 5943 5944 5945 5946 5947 5948 5949 5950 5952 5953 5953 5954 5955 5956 5956 5958 5959 5960 5961 5962 5963 5964 5965 5965
5818 5821 5824 5827 5830 5834 5837 5839 5842 5846 5849 5852 5855 5858 5862 5864 5867 5869 5870 5875 5879 5881 5883 5887 5891 5890 5888 5890 5894 5895 5898 5901 5903 5906 5907 5909 5910 5911 5912 5914 5916 5917 5918 5919 5920 5920 5921 5922 5924 5925 5926 5927 5928 5929 5931 5932 5934 5935 5937 5938 5939 5940 5941 5943 5944 5946 5946 5947 5948 5949 5950 5952 5952 5953 5954 5955 5956 5957 5958 5959 5960 5962 5963 5964 5964 5965
5816 5818 5820 5823 5827 5831 5834 5836 5839 5843 5846 5849 5852 5856 5859 5862 5865 5868 5870 5873 5876 5878 5881 5887 5889 5886 5885 5889 5891 5893 5896 5898 5901 5904 5906 5907 5909 5909 5911 5913 5914 5916 5917 5918 5920 5920 5921 5922 5923 5924 5925 5926 5926 5927 5929 5930 5932 5934 5935 5937 5938 5939 5940 5941 5943 5944 5945 5946 5947 5949 5950 5951 5951 5953 5954 5955 5956 5957 5958 5959 5960 5961 5962 5963 5964 5965
5813 5814 5817 5822 5825 5828 5831 5834 5838 5842 5844 5846 5849 5853 5855 5857 5861 5865 5867 5869 5874 5877 5880 5884 5883 5879 5882 5887 5889 5891 5894 5896 5899 5901 5903 5905 5907 5908 5910 5911 5913 5914 5915 5917 5918 5919 5920 5921 5922 5924 5924 5924 5924 5925 5927 5929 5930 5932 5934 5935 5937 5938 5939 5940 5941 5943 5944 5945 5947 5948 5949 5950 5951 5952 5953 5955 5955 5956 5957 5959 5960 5961 5962 5963 5964 5964
5810 5812 5816 5820 5822 5826 5829 5831 5835 5838 5840 5842 5846 5849 5851 5853 5858 5861 5862 5866 5871 5874 5875 5877 5876 5876 5881 5885 5886 5888 5890 5893 5896 5898 5901 5903 5905 5906 5908 5910 5911 5912 5913 5915 5916 5918 5919 5920 5921 5923 5924 5924 5924 5924 5925 5927 5928 5930 5932 5933 5935 5937 5938 5939 5940 5942 5943 5945 5946 5947 5948 5949 5950 5951 5953 5954 5955 5956 5957 5958 5959 5960 5961 5962 5963 5963
5808 5810 5813 5816 5819 5823 5826 5829 5832 5834 5836 5840 5843 5844 5847 5852 5856 5859 5861 5864 5868 5871 5872 5872 5872 5874 5880 5881 5881 5885 5887 5890 5893 5896 5898 5900 5902 5905 5906 5908 5909 5910 5911 5913 5914 5916 5917 5918 5919 5921 5923 5923 5923 5924 5924 5925 5926 5928 5929 5931 5933 5935 5936 5938 5939 5940 5942 5944 5945 5946 5947 5948 5949 5950 5951 5953 5954 5955 5957 5958 5959 5960 5960 5961 5961 5962
5806 5808 5810 5813 5816 5820 5823 5826 5828 5830 5834 5837 5839 5841 5845 5849 5852 5855 5859 5860 5865 5869 5868 5867 5867 5871 5875 5874 5876 5881 5885 5888 5891 5893 5896 5898 5900 5903 5904 5906 5907 5908 5909 5910 5912 5914 5914 5916 5916 5918 5920 5921 5922 5923 5924 5924 5924 5926 5927 5929 5931 5933 5934 5936 5937 5939 5941 5942 5943 5944 5945 5947 5948 5949 5951 5952 5954 5955 5956 5957 5958 5959 5959 5960 5961 5961
5804 5805 5807 5810 5813 5817 5820 5822 5824 5827 5831 5834 5836 5840 5842 5845 5847 5851 5855 5857 5863 5867 5864 5863 5865 5868 5869 5868 5872 5879 5882 5886 5889 5891 5894 5896 5898 5900 5902 5904 5905 5906 5907 5908 5910 5911 5912 5913 5914 5915 5917 5919 5921 5922 5922 5923 5924 5925 5926 5927 5929 5931 5932 5934 5936 5938 5939 5940 5942 5943 5944 5945 5947 5948 5950 5951 5953 5954 5955 5956 5957 5958 5959 5959 5960 5960
5801 5803 5804 5807 5810 5813 5815 5818 5821 5825 5828 5831 5833 5836 5838 5842 5844 5847 5850 5853 5858 5863 5862 5862 5861 5861 5864 5866 5871 5876 5879 5882 5886 5888 5891 5893 5896 5898 5900 5901 5903 5903 5904 5905 5907 5909 5910 5911 5911 5913 5914 5916 5918 5920 5920 5922 5923 5923 5924 5926 5927 5929 5931 5933 5935 5936 5938 5939 5941 5942 5943 5944 5945 5947 5948 5950 5952 5953 5954 5955 5956 5957 5958 5959 5959 5959
5798 5800 5802 5804 5806 5808 5812 5817 5819 5822 5825 5828 5830 5832 5836 5839 5841 5844 5847 5850 5854 5857 5859 5860 5856 5855 5862 5866 5869 5873 5876 5879 5883 5885 5888 5891 5893 5895 5897 5899 5900 5900 5901 5902 5904 5906 5907 5908 5909 5911 5912 5914 5916 5917 5918 5920 5921 5922 5923 5924 5926 5927 5929 5931 5932 5934 5936 5937 5939 5940 5941 5943 5944 5945 5947 5948 5950 5952 5953 5954 5955 5956 5957 5958 5958 5959
5796 5798 5800 5801 5804 5807 5811 5814 5816 5819 5822 5825 5827 5830 5833 5836 5837 5841 5844 5845 5849 5852 5855 5855 5851 5852 5860 5863 5865 5870 5873 5876 5879 5881 5885 5888 5890 5893 5894 5896 5897 5897 5898 5899 5901 5903 5904 5906 5907 5908 5910 5912 5913 5915 5916 5917 5919 5920 5921 5922 5924 5926 5927 5928 5930 5931 5933 5935 5937 5938 5939 5941 5942 5944 5945 5947 5949 5950 5952 5953 5954 5955 5956 5956 5957 5958
5793 5796 5797 5799 5802 5805 5808 5810 5813 5816 5818 5821 5823 5826 5829 5831 5834 5838 5839 5841 5845 5847 5850 5852 5849 5850 5856 5859 5861 5865 5868 5872 5875 5878 5881 5884 5887 5889 5891 5893 5894 5895 5896 5897 5898 5900 5902 5903 5904 5905 5906 5908 5911 5913 5914 5915 5917 5918 5919 5920 5922 5923 5924 5926 5927 5929 5931 5933 5934 5935 5937 5939 5940 5942 5943 5945 5947 5948 5950 5951 5953 5954 5955 5955 5956 5957
5790 5793 5795 5797 5800 5802 5804 5807 5809 5811 5814 5817 5820 5823 5825 5828 5832 5835 5836 5838 5840 5842 5846 5849 5845 5846 5852 5856 5858 5861 5863 5867 5871 5874 5877 5880 5883 5886 5888 5890 5892 5893 5894 5894 5895 5897 5899 5900 5902 5903 5904 5906 5907 5909 5911 5913 5915 5915 5917 5919 5920 5921 5922 5923 5924 5926 5928 5930 5931 5933 5935 5936 5938 5939 5941 5943 5945 5946 5947 5949 5951 5952 5953 5954 5955 5956
5787 5789 5792 5794 5796 5798 5800 5802 5804 5807 5811 5814 5817 5819 5821 5825 5828 5830 5833 5835 5836 5837 5842 5843 5840 5843 5849 5852 5854 5857 5860 5863 5866 5869 5872 5875 5878 5881 5883 5886 5888 5890 5892 5892 5893 5894 5896 5897 5899 5901 5902 5903 5904 5905 5907 5910 5912 5913 5915 5917 5918 5919 5919 5920 5922 5924 5926 5927 5928 5930 5932 5933 5935 5937 5939 5940 5942 5943 5945 5947 5949 5951 5952 5953 5954 5954
5784 5786 5788 5790 5791 5793 5795 5798 5801 5804 5807 5809 5813 5815 5818 5821 5823 5826 5829 5830 5831 5834 5836 5837 5837 5841 5845 5848 5850 5853 5856 5859 5862 5865 5868 5871 5874 5876 5879 5881 5884 5886 5888 5890 5890 5891 5892 5894 5896 5898 5899 5900 5902 5903 5905 5907 5909 5911 5913 5915 5916 5917 5918 5919 5920 5921 5923 5925 5926 5928 5930 5931 5933 5934 5936 5937 5938 5940 5942 5944 5946 5948 5950 5951 5952 5953
5782 5784 5786 5787 5789 5790 5792 5795 5798 5800 5802 5805 5808 5811 5814 5817 5819 5821 5824 5825 5828 5831 5831 5832 5835 5837 5840 5844 5846 5849 5851 5854 5857 5860 5864 5867 5869 5872 5874 5877 5879 5882 5884 5886 5887 5889 5890 5891 5893 5895 5896 5898 5899 5901 5902 5904 5906 5908 5910 5912 5913 5915 5917 5918 5918 5919 5921 5922 5923 5926 5927 5929 5930 5932 5933 5934 5936 5937 5939 5941 5943 5945 5947 5949 5950 5951
5780 5781 5783 5785 5787 5788 5790 5792 5794 5796 5799 5801 5804 5807 5810 5813 5814 5817 5819 5822 5825 5826 5826 5829 5832 5833 5836 5839 5842 5844 5847 5850 5853 5856 5859 5862 5865 5867 5870 5872 5875 5877 5880 5882 5884 5885 5887 5888 5889 5891 5892 5894 5896 5898 5900 5901 5903 5904 5907 5908 5909 5911 5914 5915 5916 5917 5919 5920 5921 5923 5925 5926 5927 5929 5931 5932 5934 5935 5936 5938 5940 5942 5944 5946 5948 5949
5777 5779 5781 5782 5784 5785 5787 5789 5791 5793 5795 5798 5800 5803 5806 5808 5810 5813 5815 5817 5820 5821 5823 5826 5828 5829 5832 5835 5837 5840 5842 5845 5848 5851 5854 5857 5860 5863 5865 5867 5870 5872 5875 5877 5879 5881 5883 5885 5886 5887 5889 5891 5893 5895 5897 5898 5900 5902 5903 5904 5905 5908 5911 5913 5914 5915 5916 5918 5919 5921 5922 5923 5924 5926 5928 5930 5932 5932 5934 5935 5937 5939 5941 5943 5945 5946
5774 5776 5778 5779 5781 5782 5784 5786 5788 5790 5792 5794 5797 5799 5802 5805 5807 5809 5810 5813 5815 5817 5819 5821 5822 5824 5827 5829 5832 5836 5838 5840 5843 5845 5848 5852 5855 5858 5861 5863 5865 5867 5870 5872 5875 5877 5879 5881 5883 5884 5885 5887 5889 5892 5894 5896 5897 5899 5899 5900 5901 5904 5906 5909 5911 5912 5914 5915 5916 5918 5919 5921 5922 5924 5926 5928 5929 5930 5931 5932 5934 5936 5938 5940 5942 5943
5771 5773 5775 5776 5778 5779 5781 5783 5784 5786 5788 5790 5792 5795 5798 5800 5802 5804 5807 5809 5811 5813 5815 5817 5817 5819 5822 5825 5828 5830 5832 5835 5838 5840 5843 5846 5849 5852 5855 5858 5860 5862 5865 5867 5870 5872 5875 5877 5879 5880 5882 5883 5885 5888 5891 5893 5894 5895 5896 5897 5899 5900 5903 5905 5907 5909 5911 5912 5913 5914 5916 5917 5919 5921 5923 5925 5926 5927 5928 5929 5931 5933 5935 5937 5939 5940
5768 5770 5772 5773 5774 5776 5778 5779 5781 5783 5785 5785 5787 5791 5794 5796 5798 5800 5802 5805 5807 5809 5810 5810 5811 5814 5818 5821 5822 5824 5827 5830 5833 5836 5838 5840 5843 5846 5850 5853 5855 5858 5860 5862 5865 5867 5870 5872 5874 5876 5878 5880 5881 5884 5887 5890 5891 5892 5893 5894 5896 5898 5900 5902 5904 5906 5907 5909 5910 5911 5913 5914 5915 5917 5920 5922 5923 5924 5925 5926 5928 5930 5932 5934 5935 5937
5766 5767 5769 5770 5771 5773 5775 5776 5778 5780 5780 5781 5784 5788 5789 5791 5794 5795 5797 5800 5803 5804 5804 5805 5808 5812 5815 5816 5817 5819 5822 5824 5827 5830 5832 5835 5837 5840 5843 5847 5849 5852 5855 5857 5860 5862 5864 5867 5869 5872 5874 5876 5877 5879 5882 5885 5888 5890 5891 5892 5893 5894 5896 5898 5900 5902 5904 5905 5907 5908 5909 5911 5912 5913 5915 5917 5919 5920 5922 5923 5925 5927 5929 5930 5932 5934
5763 5764 5766 5767 5768 5770 5771 5773 5775 5775 5776 5778 5782 5783 5784 5787 5789 5790 5793 5796 5797 5799 5800 5802 5804 5807 5810 5811 5812 5815 5816 5818 5821 5823 5826 5829 5831 5833 5836 5840 5843 5846 5849 5851 5854 5857 5859 5861 5864 5867 5869 5871 5873 5875 5877 5880 5883 5886 5887 5889 5890 5891 5893 5895 5897 5899 5900 5901 5903 5904 5906 5907 5909 5910 5911 5913 5915 5916 5918 5920 5922 5924 5925 5927 5929 5931
5760 5761 5763 5764 5765 5767 5768 5770 5770 5771 5773 5776 5777 5778 5780 5782 5784 5786 5788 5790 5792 5794 5796 5797 5798 5802 5805 5807 5808 5810 5811 5813 5815 5816 5819 5822 5826 5828 5830 5833 5836 5839 5842 5845 5848 5850 5853 5856 5858 5861 5864 5866 5868 5870 5872 5874 5877 5880 5883 5885 5886 5888 5890 5892 5894 5895 5896 5898 5899 5900 5901 5903 5905 5907 5908 5909 5911 5913 5915 5916 5918 5920 5921 5923 5926 5928
5756 5758 5759 5761 5762 5763 5765 5765 5767 5769 5770 5771 5772 5774 5776 5778 5780 5782 5783 5785 5788 5790 5791 5792 5794 5796 5799 5801 5803 5805 5806 5807 5809 5810 5812 5816 5819 5822 5824 5826 5829 5832 5835 5838 5841 5843 5846 5849 5852 5855 5858 5860 5863 5865 5867 5870 5872 5875 5878 5880 5882 5885 5887 5888 5890 5892 5893 5894 5895 5896 5898 5900 5902 5904 5905 5907 5908 5910 5912 5913 5914 5916 5917 5919 5922 5924
5752 5754 5756 5757 5758 5760 5761 5762 5764 5765 5766 5767 5769 5771 5772 5774 5776 5777 5778 5781 5784 5785 5786 5788 5789 5791 5793 5795 5798 5799 5800 5803 5804 5802 5804 5810 5813 5815 5818 5820 5822 5825 5828 5831 5834 5837 5839 5842 5845 5848 5851 5854 5856 5859 5861 5864 5867 5870 5872 5874 5877 5880 5882 5885 5887 5888 5889 5890 5891 5893 5894 5896 5898 5900 5901 5903 5905 5907 5908 5909 5910 5911 5913 5915 5918 5920
5748 5750 5751 5753 5754 5756 5757 5758 5760 5760 5761 5764 5766 5767 5769 5770 5771 5773 5774 5776 5778 5780 5781 5783 5784 5786 5788 5789 5792 5793 5795 5797 5797 5795 5799 5806 5808 5809 5812 5814 5815 5818 5821 5824 5827 5830 5833 5835 5838 5841 5844 5847 5849 5852 5855 5858 5861 5864 5866 5869 5872 5875 5877 5880 5882 5884 5885 5886 5887 5889 5890 5891 5893 5895 5897 5899 5900 5901 5902 5904 5905 5906 5908 5910 5913 5915
5745 5746 5747 5749 5750 5751 5753 5754 5755 5755 5757 5760 5761 5762 5764 5765 5767 5769 5769 5770 5774 5775 5776 5777 5779 5781 5783 5784 5786 5787 5788 5790 5791 5791 5795 5801 5802 5803 5806 5808 5810 5812 5814 5817 5820 5823 5826 5829 5831 5834 5837 5840 5842 5845 5848 5851 5854 5857 5860 5863 5866 5869 5872 5875 5877 5879 5881 5881 5883 5884 5885 5886 5888 5890 5892 5892 5892 5893 5895 5896 5898 5900 5903 5905 5907 5910
5742 5743 5744 5745 5746 5747 5749 5750 5751 5751 5753 5755 5756 5758 5760 5761 5762 5763 5764 5766 5770 5771 5770 5773 5775 5776 5778 5779 5780 5781 5782 5784 5786 5788 5790 5793 5795 5798 5800 5802 5804 5806 5807 5810 5813 5816 5819 5822 5824 5827 5829 5832 5835 5838 5841 5844 5847 5850 5852 5856 5859 5862 5866 5869 5871 5873 5875 5876 5878 5880 5880 5881 5883 5885 5886 5885 5885 5887 5889 5890 5892 5893 5895 5898 5901 5904
5740 5740 5741 5742 5743 5744 5745 5746 5747 5747 5748 5750 5752 5753 5755 5756 5757 5758 5760 5762 5764 5765 5766 5768 5769 5771 5773 5774 5775 5776 5777 5778 5780 5782 5784 5786 5789 5792 5793 5796 5799 5800 5801 5803 5805 5808 5811 5815 5818 5820 5822 5825 5828 5831 5833 5836 5839 5842 5845 5848 5851 5854 5858 5862 5865 5866 5868 5870 5873 5874 5874 5876 5879 5881 5881 5880 5881 5883 5886 5888 5890 5891 5892 5893 5895 5897
5739 5739 5739 5740 5740 5741 5742 5743 5743 5743 5744 5746 5748 5749 5750 5751 5752 5754 5755 5756 5757 5759 5761 5763 5764 5766 5768 5769 5770 5771 5772 5773 5774 5776 5778 5780 5782 5784 5786 5788 5791 5794 5796 5797 5798 5800 5803 5807 5810 5813 5815 5818 5820 5823 5826 5829 5832 5835 5838 5840 5843 5847 5850 5854 5857 5859 5861 5864 5867 5869 5869 5870 5873 5875 5876 5876 5877 5880 5883 5885 5888 5890 5892 5894 5894 5892
5736 5737 5737 5737 5738 5738 5739 5739 5740 5740 5741 5743 5744 5745 5746 5747 5748 5749 5749 5750 5752 5753 5755 5756 5758 5760 5761 5763 5765 5766 5767 5768 5769 5770 5771 5773 5775 5777 5779 5781 5784 5786 5789 5791 5792 5793 5795 5799 5802 5805 5808 5810 5813 5816 5819 5821 5824 5828 5830 5833 5836 5839 5842 5846 5849 5852 5854 5857 5860 5862 5863 5864 5866 5868 5870 5871 5873 5875 5878 5880 5882 5885 5888 5892 5894 5893
5733 5734 5734 5734 5735 5735 5736 5736 5737 5737 5738 5739 5740 5741 5742 5742 5743 5744 5744 5745 5746 5747 5748 5750 5752 5753 5755 5757 5759 5760 5761 5762 5763 5764 5764 5765 5767 5770 5772 5774 5776 5778 5781 5784 5786 5787 5788 5790 5794 5797 5800 5802 5805 5808 5811 5814 5817 5820 5823 5826 5829 5831 5834 5838 5841 5844 5847 5850 5853 5856 5857 5858 5860 5862 5864 5866 5868 5870 5873 5876 5878 5881 5883 5886 5889 5891
5730 5730 5730 5731 5731 5732 5732 5733 5733 5733 5734 5735 5736 5737 5737 5738 5739 5739 5740 5740 5741 5742 5743 5744 5745 5747 5749 5750 5752 5753 5754 5755 5756 5757 5757 5758 5760 5762 5764 5766 5768 5770 5772 5775 5777 5779 5781 5783 5786 5789 5791 5794 5796 5799 5803 5806 5810 5813 5816 5819 5821 5824 5826 5829 5833 5836 5839 5842 5846 5849 5851 5852 5854 5856 5858 5860 5863 5865 5868 5870 5873 5876 5878 5880 5882 5886
5725 5726 5726 5726 5728 5729 5729 5729 5729 5729 5730 5731 5732 5732 5733 5734 5734 5735 5735 5736 5737 5738 5738 5739 5740 5741 5743 5744 5746 5747 5748 5748 5749 5750 5750 5751 5753 5754 5755 5757 5759 5761 5763 5765 5768 5770 5773 5776 5779 5781 5783 5786 5788 5790 5794 5798 5802 5805 5808 5811 5814 5817 5819 5821 5824 5828 5831 5835 5838 5842 5844 5847 5848 5851 5853 5855 5857 5860 5863 5865 5867 5871 5873 5875 5877 5880
5721 5721 5721 5722 5723 5724 5724 5724 5724 5724 5725 5726 5727 5728 5729 5730 5730 5730 5731 5732 5732 5733 5734 5734 5735 5736 5737 5738 5740 5741 5741 5742 5743 5744 5744 5745 5746 5746 5747 5748 5750 5752 5754 5756 5758 5761 5764 5767 5771 5773 5776 5778 5780 5782 5785 5789 5793 5797 5801 5804 5806 5809 5811 5813 5816 5819 5823 5826 5830 5834 5838 5841 5843 5845 5847 5849 5851 5854 5857 5859 5861 5865 5868 5871 5872 5873
5716 5716 5716 5717 5718 5718 5718 5719 5719 5719 5720 5720 5721 5723 5724 5725 5725 5726 5726 5727 5728 5729 5729 5730 5731 5731 5732 5733 5734 5735 5736 5736 5737 5738 5739 5739 5740 5740 5740 5740 5741 5743 5744 5746 5749 5751 5753 5757 5761 5764 5768 5770 5772 5774 5776 5780 5784 5788 5793 5796 5799 5802 5804 5806 5808 5811 5814 5818 5822 5826 5830 5833 5836 5839 5841 5843 5845 5848 5851 5853 5855 5858 5862 5865 5866 5868
5710 5710 5710 5710 5711 5712 5714 5715 5714 5713 5713 5714 5715 5717 5719 5719 5719 5720 5721 5722 5723 5723 5724 5725 5725 5726 5727 5728 5729 5730 5730 5731 5732 5732 5733 5734 5734 5734 5734 5734 5735 5735 5736 5737 5739 5741 5743 5745 5749 5753 5758 5761 5764 5766 5768 5771 5774 5778 5783 5788 5791 5794 5797 5799 5800 5803 5806 5810 5814 5818 5822 5825 5828 5832 5834 5836 5839 5842 5844 5847 5849 5852 5855 5858 5860 5862
5704 5704 5704 5704 5706 5707 5708 5708 5707 5707 5708 5709 5709 5711 5712 5713 5713 5714 5715 5716 5717 5718 5718 5719 5720 5721 5722 5722 5723 5724 5725 5725 5726 5727 5728 5728 5728 5729 5729 5729 5729 5729 5729 5729 5730 5732 5733 5734 5737 5741 5746 5750 5754 5757 5760 5763 5765 5768 5773 5778 5782 5786 5790 5792 5794 5795 5798 5801 5806 5810 5814 5817 5820 5823 5827 5829 5832 5835 5838 5841 5843 5846 5849 5851 5853 5856